STARLINK-32272 (60735 NORAD) Tracking and Keplerian Element Data

This shows tracking and keplerian element data for the satellite.

Feedback or suggestion? Click here.




ElementValue
Catalog60735
NameSTARLINK-32272
Epoch Orbit828
Epoch Day286.82022445
Epoch Year2024
RAAN130.9723
Inclination53.162
Eccentricity0.0001543
Argument of Perigee100.7372
Mean Anonmoly259.3803
Mean Motion15.30198327
Decay Rate-7.91E-06
L11 60735U 24152R 24286.82022445 -.00000791 00000+0 -14573-4 0 9996
L22 60735 53.1620 130.9723 0001543 100.7372 259.3803 15.30198327 8285



Live tracking and technical data element details for STARLINK-32272 (NORAD 60735). STARLINK-32272 can be tracked NOW for your location showing map with azimuth and elevation plus other details from your city location.







IsCatalogInMostPopularTable: catalog: 60735, numindb: 9
Update: records affected: 1



GetName: 60735 STARLINK-32272

Hit Count: updated at: Tue, 03 Dec 2024 03:24:50 GMT